This is the latest recevied weather packets stored in our database for station/object KN6KDD. If no packets are shown the sender has not sent any weather packets the latest 10 day(s).
| Time | Temp. | Humidity | Pressure | Rain* | Wind** | Luminosity | Snow |
|---|---|---|---|---|---|---|---|
| 1777145486 | 10.56° C | 92% | 1348.7 hPa | 0 mm | - | 111 W/m² | - |
| 1777145182 | 10.56° C | 91% | 1348.8 hPa | 0 mm | - | 146 W/m² | - |
| 1777144877 | 10.56° C | 91% | 1348.7 hPa | 0 mm | - | 134 W/m² | - |
| 1777144576 | 10.56° C | 91% | 1349.1 hPa | 0 mm | - | 114 W/m² | - |
| 1777144273 | 10.56° C | 91% | 1349.2 hPa | 0 mm | - | 144 W/m² | - |
| 1777143969 | 10.56° C | 91% | 1349.2 hPa | 0 mm | - | 155 W/m² | - |
| 1777143665 | 10.56° C | 93% | 1349.2 hPa | 0 mm | - | 171 W/m² | - |
| 1777143361 | 10.56° C | 92% | 1349.4 hPa | 0 mm | - | 198 W/m² | - |
| 1777143057 | 10.56° C | 93% | 1349.4 hPa | 0 mm | - | 174 W/m² | - |
| 1777142752 | 10.56° C | 92% | 1349.1 hPa | 0 mm | - | 165 W/m² | - |
| 1777142450 | 10.56° C | 94% | 1349.4 hPa | 0 mm | - | 132 W/m² | - |
| 1777142149 | 10° C | 93% | 1349.2 hPa | 0 mm | - | 131 W/m² | - |
| 1777141846 | 10° C | 93% | 1349.4 hPa | 0 mm | - | 128 W/m² | - |
| 1777141543 | 10° C | 93% | 1349.2 hPa | 0 mm | - | 195 W/m² | - |
| 1777141242 | 10° C | 93% | 1349.2 hPa | 0 mm | - | 195 W/m² | - |
| 1777140938 | 10° C | 93% | 1349.4 hPa | 0 mm | - | 195 W/m² | - |
| 1777140635 | 10° C | 93% | 1349.2 hPa | 0 mm | - | 195 W/m² | - |
| 1777140332 | 10° C | 93% | 1349.4 hPa | 0 mm | - | 195 W/m² | - |
| 1777140030 | 10° C | 95% | 1349.2 hPa | 0 mm | - | 225 W/m² | - |
| 1777139726 | 10° C | 96% | 1349.4 hPa | 0 mm | - | 180 W/m² | - |
| 1777139421 | 10° C | 96% | 1349.4 hPa | 0 mm | - | 180 W/m² | - |
| 1777139118 | 10° C | 96% | 1349.4 hPa | 0 mm | - | 167 W/m² | - |
| 1777138815 | 10° C | 96% | 1349.2 hPa | 0 mm | - | 164 W/m² | - |
| 1777138510 | 10° C | 96% | 1349.2 hPa | 0 mm | - | 167 W/m² | - |
| 1777138206 | 10° C | 95% | 1349.1 hPa | 0 mm | - | 162 W/m² | - |
* Rain latest hour (hover to see other rain measurements)
** Current wind speed in m/s (hover to see current wind gust speed)